www.pogodaiklimat.ru

Погода и климат >> Архив погоды >> Аргентина >> Сан-Фернандо-дель-Валье-де-Катамарка


ПОГОДА в Сан-Фернандо-дель-Валье-де-Катамарке

  • Прогноз погоды в Сан-Фернандо-дель-Валье-де-Катамарке
  • Монитор погоды в Сан-Фернандо-дель-Валье-де-Катамарке

АРХИВ ПОГОДЫ в Сан-Фернандо-дель-Валье-де-Катамарке

Время (UTC), дата Ветер
(напр.,м/с)
 
Видим.   Явления Облачность Т
(С)
Тd
(С)
f
(%)
Тe
(С)
Тes
(С)
Комфортность P
(гПа)
Po
(гПа)
Тmin
(С)
Tmax
(С)
R
(мм)
R24
(мм)
S
(см)
03 15.04 С 4 20 км 3/3 1200 м
[Sc]
+22.6 +16.2 67 +27 +27 душно 1010.0 959.0
06 15.04 СВ 5 20 км 1/1 1200 м
[Sc]
+20.6 +15.7 73 +24 +24 комфорт 1009.0 958.2
09 15.04 С 4 20 км ясно +20.8 +15.2 70 +24 +24 комфорт 1008.6 958.0
12 15.04 ЮЗ 2 20 км 1/1 1200 м
[Sc]
+18.8 +15.9 83 +20 +22 1012.5 960.9 +16.8 +25.0
18 15.04 ЮЗ 5 20 км 6/6 1200 м
[Sc]
+30.6 +13.4 35 +32 +34 жарко 1012.4 961.4
21 15.04 В 7 20 км 5/5 1200 м
[Sc]
+31.2 +13.0 33 +32 +32 жарко 1013.1 962.2
00 16.04 Ю 2 20 км 4/4 1200 м
[Sc]
+21.9 +17.0 74 +26 +26 душно 1017.4 965.4 +18.6 +31.4
03 16.04 В 2 20 км 10/10 1200 м
[Sc]
+20.2 +13.8 67 +23 +23 комфорт 1018.9 967.4
06 16.04 З 1 20 км 10/10 1200 м
[Sc]
+19.2 +14.2 73 +22 +22 комфорт 1017.6 966.2
09 16.04 З 1 20 км 9/4 1200 м
[Sc diur, vesp Ac As]
+18.4 +14.0 76 +20 +20 1016.2 964.6
12 16.04 ЮЗ 1 20 км 3/3 1500 м
[Sc diur, vesp]
+17.7 +13.8 78 +19 +20 1016.9 964.8 +15.3 +21.9
15 16.04 С 7 20 км 1/1 2000 м
[Sc diur, vesp]
+26.0 +13.9 47 +28 +31 жарко 1014.4 963.0
18 16.04 С 8 20 км 1/1 2000 м
[Sc diur, vesp]
+30.6 +13.4 35 +32 +33 жарко 1009.5 958.6
21 16.04 С 12 20 км ясно +25.0 +13.8 50 +27 +27 жарко 1008.0 956.6
00 17.04 С 11 20 км ясно +20.6 +12.7 61 +22 +22 комфорт 1009.6 957.8 +17.7 +31.2
03 17.04 С 9 20 км ясно +19.6 +12.7 64 +20 +20 1010.2 959.0
06 17.04 С 5 20 км ясно +18.5 +12.8 69 +19 +19 1009.7 958.8
09 17.04 ЮЗ 3 20 км ясно +17.1 +13.1 77 +17 +17 1009.8 958.2
12 17.04 Ю 1 20 км ясно +16.8 +12.6 76 +18 +19 1011.9 959.8 +15.3 +20.6
15 17.04 Ю 2 20 км 1/1 750 м
[Sc]
+20.6 +14.7 69 +24 +35 комфорт 1011.9 960.1
18 17.04 Ю 5 20 км ясно +24.4 +15.4 57 +27 +33 жарко 1008.5 957.0
21 17.04 ЮЗ 2 20 км ясно +25.6 +16.1 56 +29 +30 душно 1007.1 955.8
00 18.04 С 7 20 км 8/8 1500 м
[Sc]
+22.6 +15.9 66 +27 +27 душно 1008.8 957.0 +16.6 +26.0
03 18.04 С 6 20 км 10/10 1500 м
[Sc]
+21.8 +15.3 67 +25 +25 комфорт 1009.3 957.8
06 18.04 штиль 0 20 км 10/10 1500 м
[Sc]
+21.6 +16.5 73 +25 +25 комфорт 1008.7 957.6
09 18.04 СВ 2 20 км ясно +15.4 +13.3 87 +16 +16 1008.3 956.8
12 18.04 штиль 0 20 км ясно +15.6 +13.2 86 +15 +17 1009.2 957.4 +13.0 +22.6
15 18.04 Ю 2 20 км 1/1 1500 м
[Sc]
+24.4 +15.8 59 +28 +37 душно 1007.7 956.6
18 18.04 С 3 20 км 1/1 1500 м
[Sc Cs]
+30.0 +15.9 43 +33 +41 душно 1002.3 952.0
21 18.04 С 7 20 км 3/3 1500 м
[Sc]
+26.9 +15.2 49 +30 +30 душно 1002.7 951.6
00 19.04 С 7 20 км 4/3 1500 м
[Sc Cc]
+23.4 +14.6 58 +27 +27 душно 1006.0 954.4 +15.1 +30.7
03 19.04 С 4 20 км ясно +22.2 +14.6 62 +26 +26 душно 1006.7 955.7
06 19.04 В 2 20 км ясно +18.8 +14.8 78 +20 +20 1007.0 956.2
09 19.04 СЗ 1 20 км 1/1 1350 м
[Sc]
+18.6 +15.0 80 +20 +20 1007.6 956.5
12 19.04 С 2 20 км 9/9 1050 м
[Sc]
+16.8 +14.8 88 +17 +17 1009.8 958.1 +15.3 +23.8
15 19.04 Ю 2 20 км 6/5 1200 м
[Sc Ci fib]
+25.6 +18.2 64 +30 +36 душно 1008.7 957.7
18 19.04 Ю 3 20 км 8/8 1350 м
[Sc]
+28.2 +17.8 53 +33 +34 очень
душно
1005.6 954.6
21 19.04 Ю 3 20 км 8/8 1350 м
[Sc]
+28.6 +17.9 52 +33 +33 очень
душно
1004.1 953.3
00 20.04 ЮЗ 3 20 км 8/8 1350 м
[Sc]
+24.2 +18.4 70 +29 +29 душно 1006.6 955.2 +16.8 +29.4
03 20.04 С 1 20 км 8/8 1200 м
[Sc]
+22.4 +19.0 81 +28 +28 душно 1007.7 956.8
06 20.04 В 2 20 км 9/9 1200 м
[Sc]
+22.6 +18.6 78 +28 +28 душно 1007.4 956.6
09 20.04 Ю 2 20 км 10/4 1200 м
[Sc Ac As]
+21.2 +18.7 86 +26 +26 душно 1007.8 957.0
12 20.04 штиль 0 20 км 9/4 1200 м
[Sc Ac As]
+22.2 +18.8 81 +28 +28 душно 1010.3 959.0 +20.2 +24.4
15 20.04 ЮВ 2 20 км 9/4 1200 м
[Sc Ac und]
+26.2 +19.3 66 +32 +34 очень
душно
1010.4 959.4
18 20.04 СВ 3 20 км 9/4 1500 м
[Sc Ac inh]
+29.4 +18.9 53 +35 +37 очень
душно
1007.1 956.6
21 20.04 В 7 20 км 10/3 1500 м
[Sc Ac cast Cs]
+28.8 +16.3 47 +32 +32 душно 1006.3 955.6
00 21.04 СВ 3 20 км 9/4 1200 м
[Sc Ac cast]
+25.6 +16.5 57 +29 +29 душно 1008.2 957.3 +22.0 +30.3
03 21.04 СВ 4 20 км 6/3 1200 м
[Sc Ac As]
+23.4 +18.1 72 +29 +29 душно 1008.6 957.8
06 21.04 С 6 20 км 8/1 1200 м
[Sc Ac As]
+23.6 +18.0 71 +28 +28 душно 1007.7 957.2
09 21.04 ЮЗ 4 20 км 10/10 1200 м
[Sc]
+20.6 +18.1 86 +25 +25 комфорт 1008.1 957.3
12 21.04 ЮЗ 4 15 км осадки на расстоянии 10/10 600 м
[St]
+18.2 +14.2 77 +18 +18 1011.9 960.4 +18.0 +25.6
15 21.04 ЮЗ 5 15 км осадки на расстоянии 10/10 600 м
[St]
+17.2 +14.2 83 +17 +17 1013.8 961.8
18 21.04 ЮЗ 2 5000 м слаб. морось 10/10 300 м
[St]
+16.6 +15.6 94 +17 +17 1012.1 960.2 0.0
21 21.04 Ю 2 4000 м в посл. час морось 10/10 240 м
[St]
+16.2 +15.5 96 +16 +16 1011.7 959.6

 

Местоположение метеостанции Сан-Фернандо-дель-Валье-де-Катамарка (Аргентина): широта -28.60 долгота -65.76 высота над уровнем моря 454 м.

В архиве по умолчанию представлена погода в Сан-Фернандо-дель-Валье-де-Катамарке за последнюю неделю. Архивные данные за месяц целиком и за предыдущие месяцы, начиная с января 2011 года, Вы можете получить, выбрав интересующий диапазон дат из раскрывающегося списка и нажав кнопку "Ввод!".


*Определитесь, кто Вы:
робот инопланетянин человек

Внимание! Время в таблицах - всемирное. Для получения местного времени необходимо прибавить поправку, которая равна -3 ч.

Смотрите также архив погоды в соседних городах и на ближайших метеорологических станциях:

Погода в Ла-Риохе (Аргентина) (134 км)
Погода в Сантьяго-дель-Эстеро (Аргентина) (171 км)
Погода в Чамикале (Аргентина) (202 км)
Погода в Сан-Мигель-де-Тукумане (Аргентина) (206 км)
Погода в Вилла де Мария дель Рио Секо (Аргентина) (248 км)
Погода в Кордове (Аргентина) (336 км)
Погода в Вилла Долорес (Аргентина) (377 км)
Погода в Пиларе (Аргентина) (385 км)
Погода в Сересе (Аргентина) (396 км)
Погода в Сан-Хуане (Аргентина) (403 км)

Пояснения к столбцам:

Ветер - указаны скорость ветра в м/с - средняя за 10 мин, порывы в срок и между сроками (в фигурных скобках) и направление, откуда дует ветер: С - северный, СВ - северо-восточный, В - восточный, ЮВ - юго-восточный, Ю - южный, ЮЗ - юго-западный, З - западный, СЗ - северо-западный.
Видимость - горизонтальная дальность видимости в метрах или километрах. При видимости от 1 до 10 км при отсутствии осадков обычно наблюдается дымка, при ухудшении видимости до 1 км и менее - туман. В сухую погоду видимость может ухудшаться дымом, пылью или мглою.
Явления - указаны атмосферные явления, наблюдавшиеся в срок или в последний час перед сроком; фигурными скобками обозначены явления, наблюдавшиеся между сроками (за 1-3 часа до срока); квадратными скобками обозначены град или гололедные отложения с указанием их диаметра в мм.
Облачность - указаны через наклонную черту общая и нижняя облачность в баллах и высота нижней границы облаков в метрах; квадратными скобками обозначены формы облаков: Ci - перистые, Cs - перисто-слоистые, Cc - перисто-кучевые, Ac - высококучевые, As - высокослоистые, Sc - слоисто-кучевые, Ns - слоисто-дождевые, Cu - кучевые, Cb - кучево-дождевые. Подробнее классификацию облаков см. в Атласе облаков (PDF).
T - Температура воздуха - температура, измеренная на высоте 2 м над землей.
Td - Температура точки росы - температура, при понижении до которой содержащийся в воздухе водяной пар достигнет насыщения.
f - Относительная влажность воздуха - влажноcть воздуха, измеренная на высоте 2 м над землей.
Te - Эффективная температура - температура, которую ощущает одетый по сезону человек в тени. Характеристика душности погоды. При расчете учитывается влияние влажности воздуха и скорости ветра на теплоощущения человека.
Tes - Эффективная температура на солнце - температура, которую ощущает человек, с поправкой на солнечный нагрев. Характеристика знойности погоды. Зависит от высоты солнца над горизонтом, облачности и скорости ветра. Ночью, в пасмурную погоду, а также при ветре 12 м/с и более поправка равна нулю.
P - Атмосферное давление - приведенное к уровню моря атмосферное давление.
Po - Атмосферное давление - измеренное на уровне метеостанции атмосферное давление.
Tmin - Минимальная температура - минимум температуры воздуха на высоте 2 м над землей.
Tmax - Максимальная температура - максимум температуры воздуха на высоте 2 м над землей.
R - Количество осадков - Количество выпавших осадков за период времени, мм. При наведении курсора мыши на число - период времени, за который выпало указанное количество осадков.
R24 - Количество осадков - Количество выпавших осадков за 24 часа, мм.
S - Снежный покров - Высота снежного покрова, см. При наведении курсора мыши на число - состояние снежного покрова и степень покрытия местности в баллах.